START_TIME,STEP,MOV.,M15,t_acc.,M20,t_acc.
1979-07-27 21:00:43.130 ,0,0,0.,24.0,0.,24.0
1979-07-27 21:01:07.130 ,0,1,0.,24.0,0.,24.0
1979-07-27 21:01:31.130 ,0,0,0.,24.0,0.,24.0
1979-07-27 21:01:55.130 ,1,1,0.,24.0,0.,24.0
1979-07-27 21:02:19.130 ,1,0,0.,24.0,0.,24.0
1979-07-27 21:02:43.130 ,2,1,0.,24.0,0.,24.0
1979-07-27 21:03:07.130 ,2,0,0.,24.0,0.,24.0
1979-07-27 21:03:31.130 ,3,1,0.,24.0,0.,24.0
1979-07-27 21:03:55.130 ,3,0,0.,24.0,0.,24.0
1979-07-27 21:04:19.130 ,4,1,0.,24.0,0.,24.0
1979-07-27 21:04:43.130 ,4,0,0.,24.0,0.,24.0
1979-07-27 21:05:07.130 ,5,1,0.,24.0,0.,24.0
1979-07-27 21:05:31.130 ,5,0,0.,24.0,0.,24.0
1979-07-27 21:05:55.130 ,6,1,0.,24.0,0.,24.0
1979-07-27 21:06:19.130 ,6,0,0.,24.0,0.,24.0
1979-07-27 21:06:43.130 ,7,0,0.,24.0,0.,24.0
1979-07-27 21:07:07.130 ,7,0,0.,24.0,0.,24.0
1979-07-27 21:07:31.130 ,3,1,0.,24.0,0.,24.0
1979-07-27 21:07:55.130 ,0,1,0.,24.0,0.,24.0
1979-07-27 21:08:19.130 ,4,1,0.,24.0,0.,24.0
1979-07-27 21:08:43.130 ,7,1,0.,24.0,0.,24.0
1979-07-27 21:09:07.130 ,3,1,0.,24.0,0.,24.0
1979-07-27 21:09:31.130 ,0,1,0.,24.0,0.,24.0
1979-07-27 21:09:55.130 ,4,1,0.,24.0,0.,24.0
1979-07-27 21:10:19.130 ,7,1,0.,24.0,0.,24.0
1979-07-27 21:10:43.130 ,3,1,0.,24.0,0.,24.0
1979-07-27 21:11:07.130 ,0,1,0.,24.0,0.,24.0
1979-07-27 21:11:31.130 ,4,1,0.,24.0,0.,24.0
1979-07-27 21:11:55.130 ,7,1,0.,24.0,0.,24.0
1979-07-27 21:12:19.130 ,3,1,0.,24.0,0.,24.0
1979-07-27 21:12:43.130 ,0,1,0.,24.0,0.,24.0
1979-07-27 21:13:07.130 ,4,1,0.,24.0,0.,24.0
1979-07-27 21:13:31.130 ,7,1,0.,24.0,0.,24.0
1979-07-27 21:13:55.130 ,3,1,0.,24.0,0.,24.0
1979-07-27 21:14:19.130 ,0,1,0.,24.0,0.,24.0
1979-07-27 21:14:43.130 ,4,1,0.,24.0,0.,24.0
1979-07-27 21:15:07.130 ,7,1,0.,24.0,0.,24.0
1979-07-27 21:15:31.130 ,3,1,0.,24.0,0.,24.0
1979-07-27 21:15:55.130 ,0,1,0.,24.0,0.,24.0
1979-07-27 21:16:19.130 ,4,1,0.,24.0,0.,24.0
1979-07-27 21:16:43.130 ,7,1,0.,24.0,0.,24.0
1979-07-27 21:17:07.130 ,3,1,0.,24.0,0.,24.0
1979-07-27 21:17:31.130 ,0,1,0.,24.0,0.,24.0
1979-07-27 21:17:55.130 ,0,0,0.,24.0,0.,24.0
1979-07-27 21:18:19.130 ,0,0,0.,24.0,0.,24.0
1979-07-27 21:18:43.130 ,5,1,0.,24.0,0.,24.0
1979-07-27 21:19:07.130 ,5,0,0.,24.0,0.,24.0
1979-07-27 21:19:31.130 ,4,1,0.,24.0,0.,24.0
1979-07-27 21:19:55.130 ,4,0,0.,24.0,0.,24.0
1979-07-27 21:20:19.130 ,3,1,0.,24.0,0.,24.0
1979-07-27 21:20:43.130 ,3,0,0.,24.0,0.,24.0
1979-07-27 21:21:07.130 ,2,1,0.,24.0,0.,24.0
1979-07-27 21:21:31.130 ,2,0,0.,24.0,0.,24.0
1979-07-27 21:21:55.130 ,1,1,0.,24.0,0.,24.0
1979-07-27 21:22:19.130 ,1,0,0.,24.0,0.,24.0
1979-07-27 21:22:43.130 ,0,1,0.,24.0,0.,24.0
1979-07-27 21:23:07.130 ,0,0,0.,24.0,0.,24.0
1979-07-27 21:23:31.130 ,0,1,0.,24.0,0.,24.0
1979-07-27 21:23:55.130 ,0,0,0.,24.0,0.,24.0
1979-07-27 21:24:19.130 ,1,1,0.,24.0,0.,24.0
1979-07-27 21:24:43.130 ,1,0,0.,24.0,0.,24.0
1979-07-27 21:25:07.130 ,2,1,0.,24.0,0.,24.0
1979-07-27 21:25:31.130 ,2,0,0.,24.0,0.,24.0
1979-07-27 21:25:55.130 ,3,1,0.,24.0,0.,24.0
1979-07-27 21:26:19.130 ,3,0,0.,24.0,0.,24.0
1979-07-27 21:26:43.130 ,4,1,0.,24.0,0.,24.0
1979-07-27 21:27:07.130 ,4,0,0.,24.0,0.,24.0
1979-07-27 21:27:31.130 ,5,1,0.,24.0,0.,24.0
1979-07-27 21:27:55.130 ,5,0,0.,24.0,0.,24.0
1979-07-27 21:28:19.130 ,6,1,0.,24.0,0.,24.0
1979-07-27 21:28:43.130 ,6,0,0.,24.0,0.,24.0
1979-07-27 21:29:07.130 ,7,1,0.,24.0,0.,24.0
1979-07-27 21:29:31.130 ,7,0,0.,24.0,0.,24.0
1979-07-27 21:29:55.130 ,7,1,0.,24.0,0.,24.0
1979-07-27 21:30:19.130 ,7,0,0.,24.0,0.,24.0
1979-07-27 21:30:43.130 ,6,1,0.,24.0,0.,24.0
1979-07-27 21:31:07.130 ,6,0,0.,24.0,0.,24.0
1979-07-27 21:31:31.130 ,5,1,0.,24.0,0.,24.0
1979-07-27 21:31:55.130 ,5,0,0.,24.0,0.,24.0
1979-07-27 21:32:19.130 ,4,1,0.,24.0,0.,24.0
1979-07-27 21:32:43.130 ,4,0,0.,24.0,0.,24.0
1979-07-27 21:33:07.130 ,3,1,0.,24.0,0.,24.0
1979-07-27 21:33:31.130 ,3,0,0.,24.0,0.,24.0
1979-07-27 21:33:55.130 ,2,1,0.,24.0,0.,24.0
1979-07-27 21:34:19.130 ,2,0,0.,24.0,0.,24.0
1979-07-27 21:34:43.130 ,1,1,0.,24.0,0.,24.0
1979-07-27 21:35:07.130 ,1,0,0.,24.0,0.,24.0
1979-07-27 21:35:31.130 ,0,1,0.,24.0,0.,24.0
1979-07-27 21:35:55.130 ,0,0,0.,24.0,0.,24.0
1979-07-27 21:36:19.130 ,0,1,0.,24.0,0.,24.0
1979-07-27 21:36:43.130 ,0,0,0.,24.0,0.,24.0
1979-07-27 21:37:07.130 ,1,1,0.,24.0,0.,24.0
1979-07-27 21:37:31.130 ,1,0,0.,24.0,0.,24.0
1979-07-27 21:37:55.130 ,2,1,0.,24.0,0.,24.0
1979-07-27 21:38:19.130 ,2,0,0.,24.0,0.,24.0
1979-07-27 21:38:43.130 ,3,1,0.,24.0,0.,24.0
1979-07-27 21:39:07.130 ,3,0,0.,24.0,0.,24.0
1979-07-27 21:39:31.130 ,4,1,0.,24.0,0.,24.0
1979-07-27 21:39:55.130 ,4,0,0.,24.0,0.,24.0
1979-07-27 21:40:19.130 ,5,1,0.,24.0,0.,24.0
1979-07-27 21:40:43.130 ,5,0,0.,24.0,0.,24.0
1979-07-27 21:41:07.130 ,6,1,0.,24.0,0.,24.0
1979-07-27 21:41:31.130 ,6,0,0.,24.0,0.,24.0
1979-07-27 21:41:55.130 ,7,1,0.,24.0,0.,24.0
1979-07-27 21:42:19.130 ,7,0,0.,24.0,0.,24.0
1979-07-27 21:42:43.130 ,7,1,0.,24.0,0.,24.0
1979-07-27 21:43:07.130 ,7,0,0.,24.0,0.,24.0
1979-07-27 21:43:31.130 ,6,1,0.,24.0,0.,24.0
1979-07-27 21:43:55.130 ,6,0,0.,24.0,0.,24.0
1979-07-27 21:44:19.130 ,5,1,0.,24.0,0.,24.0
1979-07-27 21:44:43.130 ,5,0,0.,24.0,0.,24.0
1979-07-27 21:45:07.130 ,4,1,0.,24.0,0.,24.0
1979-07-27 21:45:31.130 ,4,0,0.,24.0,0.,24.0
1979-07-27 21:45:55.130 ,3,1,0.,24.0,0.,24.0
1979-07-27 21:46:19.130 ,3,0,0.,24.0,0.,24.0
1979-07-27 21:46:43.130 ,2,1,0.,24.0,0.,24.0
1979-07-27 21:47:07.130 ,2,0,0.,24.0,0.,24.0
1979-07-27 21:47:31.130 ,1,1,0.,24.0,0.,24.0
1979-07-27 21:47:55.130 ,1,0,0.,24.0,0.,24.0
1979-07-27 21:48:19.130 ,0,1,0.,24.0,0.,24.0
1979-07-27 21:48:43.130 ,0,0,0.,24.0,0.,24.0
1979-07-27 21:49:07.130 ,0,1,0.,24.0,0.,24.0
1979-07-27 21:49:31.130 ,0,0,0.,24.0,0.,24.0
1979-07-27 21:49:55.130 ,1,1,0.,24.0,0.,24.0
1979-07-27 21:50:19.130 ,1,0,0.,24.0,0.,24.0
1979-07-27 21:50:43.130 ,2,1,0.,24.0,0.,24.0
1979-07-27 21:51:07.130 ,2,0,0.,24.0,0.,24.0
1979-07-27 21:51:31.130 ,3,1,0.,24.0,0.,24.0
1979-07-27 21:51:55.130 ,3,0,0.,24.0,0.,24.0
1979-07-27 21:52:19.130 ,4,1,0.,24.0,0.,24.0
1979-07-27 21:52:43.130 ,4,0,0.,24.0,0.,24.0
1979-07-27 21:53:07.130 ,5,1,0.,24.0,0.,24.0
1979-07-27 21:53:31.130 ,5,0,0.,24.0,0.,24.0
1979-07-27 21:53:55.130 ,6,1,0.,24.0,0.,24.0
1979-07-27 21:54:19.130 ,6,0,0.,24.0,0.,24.0
1979-07-27 21:54:43.130 ,7,0,0.,24.0,0.,24.0
1979-07-27 21:55:07.130 ,7,0,0.,24.0,0.,24.0
1979-07-27 21:55:31.130 ,3,1,0.,24.0,0.,24.0
1979-07-27 21:55:55.130 ,0,1,0.,24.0,0.,24.0
1979-07-27 21:56:19.130 ,4,1,0.,24.0,0.,24.0
1979-07-27 21:56:43.130 ,7,1,0.,24.0,0.,24.0
1979-07-27 21:57:07.130 ,3,1,0.,24.0,0.,24.0
1979-07-27 21:57:31.130 ,0,1,0.,24.0,0.,24.0
1979-07-27 21:57:55.130 ,4,1,0.,24.0,0.,24.0
1979-07-27 21:58:19.130 ,7,1,0.,24.0,0.,24.0
1979-07-27 21:58:43.130 ,3,1,0.,24.0,0.,24.0
1979-07-27 21:59:07.130 ,0,1,0.,24.0,0.,24.0
1979-07-27 21:59:31.130 ,4,1,0.,24.0,0.,24.0
1979-07-27 21:59:55.130 ,7,1,0.,24.0,0.,24.0
1979-07-27 22:00:19.130 ,3,1,0.,24.0,0.,24.0
1979-07-27 22:00:43.130 ,0,1,0.,24.0,0.,24.0
1979-07-27 22:01:07.130 ,4,1,0.,24.0,0.,24.0
1979-07-27 22:01:31.130 ,7,1,0.,24.0,0.,24.0
1979-07-27 22:01:55.130 ,3,1,0.,24.0,0.,24.0
1979-07-27 22:02:19.130 ,0,1,0.,24.0,0.,24.0
1979-07-27 22:02:43.130 ,4,1,0.,24.0,0.,24.0
1979-07-27 22:03:07.130 ,7,1,0.,24.0,0.,24.0
1979-07-27 22:03:31.130 ,3,1,0.,24.0,0.,24.0
1979-07-27 22:03:55.130 ,0,1,0.,24.0,0.,24.0
1979-07-27 22:04:19.130 ,4,1,0.,24.0,0.,24.0
1979-07-27 22:04:43.130 ,7,1,0.,24.0,0.,24.0
1979-07-27 22:05:07.130 ,3,1,0.,24.0,0.,24.0
1979-07-27 22:05:31.130 ,0,1,0.,24.0,0.,24.0
1979-07-27 22:05:55.130 ,0,0,0.,24.0,0.,24.0
1979-07-27 22:06:19.130 ,0,0,0.,24.0,0.,24.0
1979-07-27 22:06:43.130 ,5,1,0.,24.0,0.,24.0
1979-07-27 22:07:07.130 ,5,0,0.,24.0,0.,24.0
1979-07-27 22:07:31.130 ,4,1,0.,24.0,0.,24.0
1979-07-27 22:07:55.130 ,4,0,0.,24.0,0.,24.0
1979-07-27 22:08:19.130 ,3,1,0.,24.0,0.,24.0
1979-07-27 22:08:43.130 ,3,0,0.,24.0,0.,24.0
1979-07-27 22:09:07.130 ,2,1,0.,24.0,0.,24.0
1979-07-27 22:09:31.130 ,2,0,0.,24.0,0.,24.0
1979-07-27 22:09:55.130 ,1,1,0.,24.0,0.,24.0
1979-07-27 22:10:19.130 ,1,0,0.,24.0,0.,24.0
1979-07-27 22:10:43.130 ,0,1,0.,24.0,0.,24.0
1979-07-27 22:11:07.130 ,0,0,0.,24.0,0.,24.0
1979-07-27 22:11:31.130 ,0,1,0.,24.0,0.,24.0
1979-07-27 22:11:55.130 ,0,0,0.,24.0,0.,24.0
1979-07-27 22:12:19.130 ,1,1,0.,24.0,0.,24.0
1979-07-27 22:12:43.130 ,1,0,0.,24.0,0.,24.0
1979-07-27 22:13:07.130 ,2,1,0.,24.0,0.,24.0
1979-07-27 22:13:31.130 ,2,0,0.,24.0,0.,24.0
1979-07-27 22:13:55.130 ,3,1,0.,24.0,0.,24.0
1979-07-27 22:14:19.130 ,3,0,0.,24.0,0.,24.0
1979-07-27 22:14:43.130 ,4,1,0.,24.0,0.,24.0
1979-07-27 22:15:07.130 ,4,0,0.,24.0,0.,24.0
1979-07-27 22:15:31.130 ,5,1,0.,24.0,0.,24.0
1979-07-27 22:15:55.130 ,5,0,0.,24.0,0.,24.0
1979-07-27 22:16:19.130 ,6,1,0.,24.0,0.,24.0
1979-07-27 22:16:43.130 ,6,0,0.,24.0,0.,24.0
1979-07-27 22:17:07.130 ,7,1,0.,24.0,0.,24.0
1979-07-27 22:17:31.130 ,7,0,0.,24.0,0.,24.0
1979-07-27 22:17:55.130 ,7,1,0.,24.0,0.,24.0
1979-07-27 22:18:19.130 ,7,0,0.,24.0,0.,24.0
1979-07-27 22:18:43.130 ,6,1,0.,24.0,0.,24.0
1979-07-27 22:19:07.130 ,6,0,0.,24.0,0.,24.0
1979-07-27 22:19:31.130 ,5,1,0.,24.0,0.,24.0
1979-07-27 22:19:55.130 ,5,0,0.,24.0,0.,24.0
1979-07-27 22:20:19.130 ,4,1,0.,24.0,0.,24.0
1979-07-27 22:20:43.130 ,4,0,0.,24.0,0.,24.0
1979-07-27 22:21:07.130 ,3,1,0.,24.0,0.,24.0
1979-07-27 22:21:31.130 ,3,0,0.,24.0,0.,24.0
1979-07-27 22:21:55.130 ,2,1,0.,24.0,0.,24.0
1979-07-27 22:22:19.130 ,2,0,0.,24.0,0.,24.0
1979-07-27 22:22:43.130 ,1,1,0.,24.0,0.,24.0
1979-07-27 22:23:07.130 ,1,0,0.,24.0,0.,24.0
1979-07-27 22:23:31.130 ,0,1,0.,24.0,0.,24.0
1979-07-27 22:23:55.130 ,0,0,0.,24.0,0.,24.0
1979-07-27 22:24:19.130 ,0,1,0.,24.0,0.,24.0
1979-07-27 22:24:43.130 ,0,0,0.,24.0,0.,24.0
1979-07-27 22:25:07.130 ,1,1,0.,24.0,0.,24.0
1979-07-27 22:25:31.130 ,1,0,0.,24.0,0.,24.0
1979-07-27 22:25:55.130 ,2,1,0.,24.0,0.,24.0
1979-07-27 22:26:19.130 ,2,0,0.,24.0,0.,24.0
1979-07-27 22:26:43.130 ,3,1,0.,24.0,0.,24.0
1979-07-27 22:27:07.130 ,3,0,0.,24.0,0.,24.0
1979-07-27 22:27:31.130 ,4,1,0.,24.0,0.,24.0
1979-07-27 22:27:55.130 ,4,0,0.,24.0,0.,24.0
1979-07-27 22:28:19.130 ,5,1,0.,24.0,0.,24.0
1979-07-27 22:28:43.130 ,5,0,0.,24.0,0.,24.0
1979-07-27 22:29:07.130 ,6,1,0.,24.0,0.,24.0
1979-07-27 22:29:31.130 ,6,0,0.,24.0,0.,24.0
1979-07-27 22:29:55.130 ,7,1,0.,24.0,0.,24.0
1979-07-27 22:30:19.130 ,7,0,0.,24.0,0.,24.0
1979-07-27 22:30:43.130 ,7,1,0.,24.0,0.,24.0
1979-07-27 22:31:07.130 ,7,0,0.,24.0,0.,24.0
1979-07-27 22:31:31.130 ,6,1,0.,24.0,0.,24.0
1979-07-27 22:31:55.130 ,6,0,0.,24.0,0.,24.0
1979-07-27 22:32:19.130 ,5,1,0.,24.0,0.,24.0
1979-07-27 22:32:43.130 ,5,0,0.,24.0,0.,24.0
1979-07-27 22:33:07.130 ,4,1,0.,24.0,0.,24.0
1979-07-27 22:33:31.130 ,4,0,0.,24.0,0.,24.0
1979-07-27 22:33:55.130 ,3,1,0.,24.0,0.,24.0
1979-07-27 22:34:19.130 ,3,0,0.,24.0,0.,24.0
1979-07-27 22:34:43.130 ,2,1,0.,24.0,0.,24.0
1979-07-27 22:35:07.130 ,2,0,0.,24.0,0.,24.0
1979-07-27 22:35:31.130 ,1,1,0.,24.0,0.,24.0
1979-07-27 22:35:55.130 ,1,0,0.,24.0,0.,24.0
1979-07-27 22:36:19.130 ,0,1,0.,24.0,0.,24.0
1979-07-27 22:36:43.130 ,0,0,0.,24.0,0.,24.0
1979-07-27 22:37:07.130 ,0,1,0.,24.0,0.,24.0
1979-07-27 22:37:31.130 ,0,0,0.,24.0,0.,24.0
1979-07-27 22:37:55.130 ,1,1,0.,24.0,0.,24.0
1979-07-27 22:38:19.130 ,1,0,0.,24.0,0.,24.0
1979-07-27 22:38:43.130 ,2,1,0.,24.0,0.,24.0
1979-07-27 22:39:07.130 ,2,0,0.,24.0,0.,24.0
1979-07-27 22:39:31.130 ,3,1,0.,24.0,0.,24.0
1979-07-27 22:39:55.130 ,3,0,0.,24.0,0.,24.0
1979-07-27 22:40:19.130 ,4,1,0.,24.0,0.,24.0
1979-07-27 22:40:43.130 ,4,0,0.,24.0,0.,24.0
1979-07-27 22:41:07.130 ,5,1,0.,24.0,0.,24.0
1979-07-27 22:41:31.130 ,5,0,0.,24.0,0.,24.0
1979-07-27 22:41:55.130 ,6,1,0.,24.0,0.,24.0
1979-07-27 22:42:19.130 ,6,0,0.,24.0,0.,24.0
1979-07-27 22:42:43.130 ,7,0,0.,24.0,0.,24.0
1979-07-27 22:43:07.130 ,7,0,0.,24.0,0.,24.0
1979-07-27 22:43:31.130 ,3,1,0.,24.0,0.,24.0
1979-07-27 22:43:55.130 ,0,1,0.,24.0,0.,24.0
1979-07-27 22:44:19.130 ,4,1,0.,24.0,0.,24.0
1979-07-27 22:44:43.130 ,7,1,0.,24.0,0.,24.0
1979-07-27 22:45:07.130 ,3,1,0.,24.0,0.,24.0
1979-07-27 22:45:31.130 ,0,1,0.,24.0,0.,24.0
1979-07-27 22:45:55.130 ,4,1,0.,24.0,0.,24.0
1979-07-27 22:46:19.130 ,7,1,0.,24.0,0.,24.0
1979-07-27 22:46:43.130 ,3,1,0.,24.0,0.,24.0
1979-07-27 22:47:07.130 ,0,1,0.,24.0,0.,24.0
1979-07-27 22:47:31.130 ,4,1,0.,24.0,0.,24.0
1979-07-27 22:47:55.130 ,7,1,0.,24.0,0.,24.0
1979-07-27 22:48:19.130 ,3,1,0.,24.0,0.,24.0
1979-07-27 22:48:43.130 ,0,1,0.,24.0,0.,24.0
1979-07-27 22:49:07.130 ,4,1,0.,24.0,0.,24.0
1979-07-27 22:49:31.130 ,7,1,0.,24.0,0.,24.0
1979-07-27 22:49:55.130 ,3,1,0.,24.0,0.,24.0
1979-07-27 22:50:19.130 ,0,1,0.,24.0,0.,24.0
1979-07-27 22:50:43.130 ,4,1,0.,24.0,0.,24.0
1979-07-27 22:51:07.130 ,7,1,0.,24.0,0.,24.0
1979-07-27 22:51:31.130 ,3,1,0.,24.0,0.,24.0
1979-07-27 22:51:55.130 ,0,1,0.,24.0,0.,24.0
1979-07-27 22:52:19.130 ,4,1,0.,24.0,0.,24.0
1979-07-27 22:52:43.130 ,7,1,0.,24.0,0.,24.0
1979-07-27 22:53:07.130 ,3,1,0.,24.0,0.,24.0
1979-07-27 22:53:31.130 ,0,1,0.,24.0,0.,24.0
1979-07-27 22:53:55.130 ,0,0,0.,24.0,0.,24.0
1979-07-27 22:54:19.130 ,0,0,0.,24.0,0.,24.0
1979-07-27 22:54:43.130 ,5,1,0.,24.0,0.,24.0
1979-07-27 22:55:07.130 ,5,0,0.,24.0,0.,24.0
1979-07-27 22:55:31.130 ,4,1,0.,24.0,0.,24.0
1979-07-27 22:55:55.130 ,4,0,0.,24.0,0.,24.0
1979-07-27 22:56:19.130 ,3,1,0.,24.0,0.,24.0
1979-07-27 22:56:43.130 ,3,0,0.,24.0,0.,24.0
1979-07-27 22:57:07.130 ,2,1,0.,24.0,0.,24.0
1979-07-27 22:57:31.130 ,2,0,0.,24.0,0.,24.0
1979-07-27 22:57:55.130 ,1,1,0.,24.0,0.,24.0
1979-07-27 22:58:19.130 ,1,0,0.,24.0,0.,24.0
1979-07-27 22:58:43.130 ,0,1,0.,24.0,0.,24.0
1979-07-27 22:59:07.130 ,0,0,0.,24.0,0.,24.0
1979-07-27 22:59:31.130 ,0,1,0.,24.0,0.,24.0
1979-07-27 22:59:55.130 ,0,0,0.,24.0,0.,24.0
1979-07-27 23:00:19.130 ,1,1,1.,24.0,0.,24.0
1979-07-27 23:00:43.130 ,1,0,0.,24.0,0.,24.0
1979-07-27 23:01:07.130 ,2,1,0.,24.0,0.,24.0
1979-07-27 23:01:31.130 ,2,0,0.,24.0,0.,24.0
1979-07-27 23:01:55.130 ,3,1,0.,24.0,0.,24.0
1979-07-27 23:02:19.130 ,3,0,0.,24.0,0.,24.0
1979-07-27 23:02:43.130 ,4,1,0.,24.0,0.,24.0
1979-07-27 23:03:07.130 ,4,0,0.,24.0,0.,24.0
1979-07-27 23:03:31.130 ,5,1,0.,24.0,0.,24.0
1979-07-27 23:03:55.130 ,5,0,0.,24.0,0.,24.0
1979-07-27 23:04:19.130 ,6,1,0.,24.0,0.,24.0
1979-07-27 23:04:43.130 ,6,0,0.,24.0,0.,24.0
1979-07-27 23:05:07.130 ,7,1,0.,24.0,0.,24.0
1979-07-27 23:05:31.130 ,7,0,0.,24.0,0.,24.0
1979-07-27 23:05:55.130 ,7,1,0.,24.0,0.,24.0
1979-07-27 23:06:19.130 ,7,0,0.,24.0,0.,24.0
1979-07-27 23:06:43.130 ,6,1,0.,24.0,0.,24.0
1979-07-27 23:07:07.130 ,0,0,0.,24.0,0.,24.0
1979-07-27 23:08:19.130 ,0,0,0.,24.0,0.,24.0
1979-07-27 23:08:43.130 ,0,0,0.,24.0,0.,24.0
1979-07-27 23:09:07.130 ,3,1,0.,24.0,0.,24.0
1979-07-27 23:09:31.130 ,3,0,0.,24.0,0.,24.0
1979-07-27 23:09:55.130 ,2,1,0.,24.0,0.,24.0
1979-07-27 23:10:19.130 ,2,0,0.,24.0,0.,24.0
1979-07-27 23:10:43.130 ,1,1,0.,24.0,0.,24.0
1979-07-27 23:11:07.130 ,1,0,0.,24.0,0.,24.0
1979-07-27 23:11:31.130 ,0,1,0.,24.0,0.,24.0
1979-07-27 23:11:55.130 ,0,0,0.,24.0,0.,24.0
1979-07-27 23:12:19.130 ,0,1,0.,24.0,0.,24.0
1979-07-27 23:12:43.130 ,0,0,0.,24.0,0.,24.0
1979-07-27 23:13:07.120 ,1,1,0.,24.0,0.,24.0
1979-07-27 23:13:31.120 ,1,0,0.,24.0,0.,24.0
1979-07-27 23:13:55.120 ,2,1,0.,24.0,0.,24.0
1979-07-27 23:14:19.120 ,2,0,0.,24.0,0.,24.0
1979-07-27 23:14:43.120 ,3,1,0.,24.0,0.,24.0
1979-07-27 23:15:07.120 ,3,0,0.,24.0,0.,24.0
1979-07-27 23:15:31.120 ,4,1,0.,24.0,0.,24.0
1979-07-27 23:15:55.120 ,4,0,0.,24.0,0.,24.0
1979-07-27 23:16:19.120 ,5,1,0.,24.0,0.,24.0
1979-07-27 23:16:43.120 ,5,0,0.,24.0,0.,24.0
1979-07-27 23:17:07.120 ,6,1,0.,24.0,0.,24.0
1979-07-27 23:17:31.120 ,6,0,1.,24.0,0.,24.0
1979-07-27 23:17:55.120 ,7,1,0.,24.0,0.,24.0
1979-07-27 23:18:19.120 ,7,0,0.,24.0,0.,24.0
1979-07-27 23:18:43.120 ,7,1,0.,24.0,0.,24.0
1979-07-27 23:19:07.120 ,7,0,0.,24.0,0.,24.0
1979-07-27 23:19:31.120 ,6,1,0.,24.0,0.,24.0
1979-07-27 23:19:55.120 ,6,0,0.,24.0,0.,24.0
1979-07-27 23:20:19.120 ,5,1,0.,24.0,0.,24.0
1979-07-27 23:20:43.120 ,5,0,0.,24.0,0.,24.0
1979-07-27 23:21:07.120 ,4,1,0.,24.0,0.,24.0
1979-07-27 23:21:31.120 ,4,0,0.,24.0,0.,24.0
1979-07-27 23:21:55.120 ,3,1,0.,24.0,0.,24.0
1979-07-27 23:22:19.120 ,3,0,0.,24.0,0.,24.0
1979-07-27 23:22:43.120 ,2,1,0.,24.0,0.,24.0
1979-07-27 23:23:07.120 ,2,0,0.,24.0,0.,24.0
1979-07-27 23:23:31.120 ,1,1,0.,24.0,0.,24.0
1979-07-27 23:23:55.120 ,1,0,0.,24.0,0.,24.0
1979-07-27 23:24:19.120 ,0,1,0.,24.0,0.,24.0
1979-07-27 23:24:43.120 ,0,0,0.,24.0,0.,24.0
1979-07-27 23:25:07.120 ,0,1,0.,24.0,0.,24.0
1979-07-27 23:25:31.120 ,0,0,0.,24.0,0.,24.0
1979-07-27 23:25:55.120 ,1,1,0.,24.0,0.,24.0
1979-07-27 23:26:19.120 ,1,0,0.,24.0,0.,24.0
1979-07-27 23:26:43.120 ,2,1,0.,24.0,0.,24.0
1979-07-27 23:27:07.120 ,2,0,0.,24.0,0.,24.0
1979-07-27 23:27:31.120 ,3,1,0.,24.0,0.,24.0
1979-07-27 23:27:55.120 ,3,0,0.,24.0,0.,24.0
1979-07-27 23:28:19.120 ,4,1,0.,24.0,0.,24.0
1979-07-27 23:28:43.120 ,4,0,0.,24.0,0.,24.0
1979-07-27 23:29:07.120 ,5,1,0.,24.0,0.,24.0
1979-07-27 23:29:31.120 ,5,0,0.,24.0,0.,24.0
1979-07-27 23:29:55.120 ,6,1,0.,24.0,0.,24.0
1979-07-27 23:30:19.120 ,6,0,0.,24.0,0.,24.0
1979-07-27 23:30:43.120 ,7,0,0.,24.0,0.,24.0
1979-07-27 23:31:07.120 ,7,0,0.,24.0,0.,24.0
1979-07-27 23:31:31.120 ,3,1,0.,24.0,0.,24.0
1979-07-27 23:31:55.120 ,0,1,0.,24.0,0.,24.0
1979-07-27 23:32:19.120 ,4,1,0.,24.0,0.,24.0
1979-07-27 23:32:43.120 ,7,1,0.,24.0,0.,24.0
1979-07-27 23:33:07.120 ,3,1,0.,24.0,0.,24.0
1979-07-27 23:33:31.120 ,0,1,0.,24.0,0.,24.0
1979-07-27 23:33:55.120 ,4,1,0.,24.0,0.,24.0
1979-07-27 23:34:19.120 ,7,1,0.,24.0,0.,24.0
1979-07-27 23:34:43.120 ,3,1,0.,24.0,0.,24.0
1979-07-27 23:35:07.120 ,0,1,0.,24.0,0.,24.0
1979-07-27 23:35:31.120 ,4,1,0.,24.0,0.,24.0
1979-07-27 23:35:55.120 ,7,1,0.,24.0,0.,24.0
1979-07-27 23:36:19.120 ,3,1,0.,24.0,0.,24.0
1979-07-27 23:36:43.120 ,0,1,0.,24.0,0.,24.0
1979-07-27 23:37:07.120 ,4,1,0.,24.0,0.,24.0
1979-07-27 23:37:31.120 ,7,1,0.,24.0,0.,24.0
1979-07-27 23:37:55.120 ,3,1,0.,24.0,0.,24.0
1979-07-27 23:38:19.120 ,0,1,0.,24.0,0.,24.0
1979-07-27 23:38:43.120 ,4,1,0.,24.0,0.,24.0
1979-07-27 23:39:07.120 ,7,1,0.,24.0,0.,24.0
1979-07-27 23:39:31.120 ,3,1,1.,24.0,0.,24.0
1979-07-27 23:39:55.120 ,0,1,0.,24.0,0.,24.0
1979-07-27 23:40:19.120 ,4,1,0.,24.0,0.,24.0
1979-07-27 23:40:43.120 ,7,1,0.,24.0,0.,24.0
1979-07-27 23:41:07.120 ,3,1,0.,24.0,0.,24.0
1979-07-27 23:41:31.120 ,0,1,0.,24.0,0.,24.0
1979-07-27 23:41:55.120 ,0,0,0.,24.0,0.,24.0
1979-07-27 23:42:19.120 ,0,0,0.,24.0,0.,24.0
1979-07-27 23:42:43.120 ,5,1,0.,24.0,0.,24.0
1979-07-27 23:43:07.120 ,5,0,0.,24.0,0.,24.0
1979-07-27 23:43:31.120 ,4,1,0.,24.0,0.,24.0
1979-07-27 23:43:55.120 ,4,0,0.,24.0,0.,24.0
1979-07-27 23:44:19.120 ,3,1,0.,24.0,0.,24.0
1979-07-27 23:44:43.120 ,3,0,0.,24.0,0.,24.0
1979-07-27 23:45:07.120 ,2,1,0.,24.0,0.,24.0
1979-07-27 23:45:31.120 ,2,0,0.,24.0,0.,24.0
1979-07-27 23:45:55.120 ,1,1,0.,24.0,0.,24.0
1979-07-27 23:46:19.120 ,1,0,0.,24.0,0.,24.0
1979-07-27 23:46:43.120 ,0,1,0.,24.0,0.,24.0
1979-07-27 23:47:07.120 ,0,0,0.,24.0,0.,24.0
1979-07-27 23:47:31.120 ,0,1,0.,24.0,0.,24.0
1979-07-27 23:47:55.120 ,0,0,0.,24.0,0.,24.0
1979-07-27 23:48:19.120 ,1,1,0.,24.0,0.,24.0
1979-07-27 23:48:43.120 ,1,0,0.,24.0,0.,24.0
1979-07-27 23:49:07.120 ,2,1,0.,24.0,0.,24.0
1979-07-27 23:49:31.120 ,2,0,0.,24.0,0.,24.0
1979-07-27 23:49:55.120 ,3,1,0.,24.0,0.,24.0
1979-07-27 23:50:19.120 ,3,0,0.,24.0,0.,24.0
1979-07-27 23:50:43.120 ,4,1,0.,24.0,0.,24.0
1979-07-27 23:51:07.120 ,4,0,0.,24.0,0.,24.0
1979-07-27 23:51:31.120 ,5,1,0.,24.0,0.,24.0
1979-07-27 23:51:55.120 ,5,0,0.,24.0,0.,24.0
1979-07-27 23:52:19.120 ,6,1,0.,24.0,0.,24.0
1979-07-27 23:52:43.120 ,6,0,0.,24.0,0.,24.0
1979-07-27 23:53:07.120 ,7,1,0.,24.0,0.,24.0
1979-07-27 23:53:31.120 ,7,0,0.,24.0,0.,24.0
1979-07-27 23:53:55.120 ,7,1,0.,24.0,0.,24.0
1979-07-27 23:54:19.120 ,7,0,0.,24.0,0.,24.0
1979-07-27 23:54:43.120 ,6,1,0.,24.0,0.,24.0
1979-07-27 23:55:07.120 ,6,0,0.,24.0,0.,24.0
1979-07-27 23:55:31.120 ,5,1,0.,24.0,0.,24.0
1979-07-27 23:55:55.120 ,5,0,0.,24.0,0.,24.0
1979-07-27 23:56:19.120 ,4,1,0.,24.0,0.,24.0
1979-07-27 23:56:43.120 ,4,0,0.,24.0,0.,24.0
1979-07-27 23:57:07.120 ,3,1,0.,24.0,0.,24.0
1979-07-27 23:57:31.120 ,3,0,0.,24.0,0.,24.0
1979-07-27 23:57:55.120 ,2,1,0.,24.0,0.,24.0
1979-07-27 23:58:19.120 ,2,0,0.,24.0,0.,24.0
1979-07-27 23:58:43.120 ,1,1,0.,24.0,0.,24.0
1979-07-27 23:59:07.120 ,1,0,0.,24.0,0.,24.0
1979-07-27 23:59:31.120 ,0,1,0.,24.0,0.,24.0
1979-07-27 23:59:55.120 ,0,0,0.,24.0,0.,24.0
1979-07-28 00:00:19.120 ,0,1,0.,24.0,0.,24.0
1979-07-27 23:06:43.130 ,0,0,0.,24.0,0.,24.0
1979-07-27 23:07:07.130 ,0,0,0.,24.0,0.,24.0
1979-07-27 23:08:19.130 ,0,0,0.,24.0,0.,24.0
1979-07-27 23:08:43.130 ,0,0,0.,24.0,0.,24.0
1979-07-27 23:09:07.130 ,3,1,0.,24.0,0.,24.0
1979-07-27 23:09:31.130 ,3,0,0.,24.0,0.,24.0
1979-07-27 23:09:55.130 ,2,1,0.,24.0,0.,24.0
1979-07-27 23:10:19.130 ,2,0,0.,24.0,0.,24.0
1979-07-27 23:10:43.130 ,1,1,0.,24.0,0.,24.0
1979-07-27 23:11:07.130 ,1,0,0.,24.0,0.,24.0
1979-07-27 23:11:31.130 ,0,1,0.,24.0,0.,24.0
1979-07-27 23:11:55.130 ,0,0,0.,24.0,0.,24.0
1979-07-27 23:12:19.130 ,0,1,0.,24.0,0.,24.0
1979-07-27 23:12:43.130 ,0,0,0.,24.0,0.,24.0
1979-07-27 23:13:07.120 ,1,1,0.,24.0,0.,24.0
1979-07-27 23:13:31.120 ,1,0,0.,24.0,0.,24.0
1979-07-27 23:13:55.120 ,2,1,0.,24.0,0.,24.0
1979-07-27 23:14:19.120 ,2,0,0.,24.0,0.,24.0
1979-07-27 23:14:43.120 ,3,1,0.,24.0,0.,24.0
1979-07-27 23:15:07.120 ,3,0,0.,24.0,0.,24.0
1979-07-27 23:15:31.120 ,4,1,0.,24.0,0.,24.0
1979-07-27 23:15:55.120 ,4,0,0.,24.0,0.,24.0
1979-07-27 23:16:19.120 ,5,1,0.,24.0,0.,24.0
1979-07-27 23:16:43.120 ,5,0,0.,24.0,0.,24.0
1979-07-27 23:17:07.120 ,6,1,0.,24.0,0.,24.0
1979-07-27 23:17:31.120 ,6,0,1.,24.0,0.,24.0
1979-07-27 23:17:55.120 ,7,1,0.,24.0,0.,24.0
1979-07-27 23:18:19.120 ,7,0,0.,24.0,0.,24.0
1979-07-27 23:18:43.120 ,7,1,0.,24.0,0.,24.0
1979-07-27 23:19:07.120 ,7,0,0.,24.0,0.,24.0
1979-07-27 23:19:31.120 ,6,1,0.,24.0,0.,24.0
1979-07-27 23:19:55.120 ,6,0,0.,24.0,0.,24.0
1979-07-27 23:20:19.120 ,5,1,0.,24.0,0.,24.0
1979-07-27 23:20:43.120 ,5,0,0.,24.0,0.,24.0
1979-07-27 23:21:07.120 ,4,1,0.,24.0,0.,24.0
1979-07-27 23:21:31.120 ,4,0,0.,24.0,0.,24.0
1979-07-27 23:21:55.120 ,3,1,0.,24.0,0.,24.0
1979-07-27 23:22:19.120 ,3,0,0.,24.0,0.,24.0
1979-07-27 23:22:43.120 ,2,1,0.,24.0,0.,24.0
1979-07-27 23:23:07.120 ,2,0,0.,24.0,0.,24.0
1979-07-27 23:23:31.120 ,1,1,0.,24.0,0.,24.0
1979-07-27 23:23:55.120 ,1,0,0.,24.0,0.,24.0
1979-07-27 23:24:19.120 ,0,1,0.,24.0,0.,24.0
1979-07-27 23:24:43.120 ,0,0,0.,24.0,0.,24.0
1979-07-27 23:25:07.120 ,0,1,0.,24.0,0.,24.0
1979-07-27 23:25:31.120 ,0,0,0.,24.0,0.,24.0
1979-07-27 23:25:55.120 ,1,1,0.,24.0,0.,24.0
1979-07-27 23:26:19.120 ,1,0,0.,24.0,0.,24.0
1979-07-27 23:26:43.120 ,2,1,0.,24.0,0.,24.0
1979-07-27 23:27:07.120 ,2,0,0.,24.0,0.,24.0
1979-07-27 23:27:31.120 ,3,1,0.,24.0,0.,24.0
1979-07-27 23:27:55.120 ,3,0,0.,24.0,0.,24.0
1979-07-27 23:28:19.120 ,4,1,0.,24.0,0.,24.0
1979-07-27 23:28:43.120 ,4,0,0.,24.0,0.,24.0
1979-07-27 23:29:07.120 ,5,1,0.,24.0,0.,24.0
1979-07-27 23:29:31.120 ,5,0,0.,24.0,0.,24.0
1979-07-27 23:29:55.120 ,6,1,0.,24.0,0.,24.0
1979-07-27 23:30:19.120 ,6,0,0.,24.0,0.,24.0
1979-07-27 23:30:43.120 ,7,0,0.,24.0,0.,24.0
1979-07-27 23:31:07.120 ,7,0,0.,24.0,0.,24.0
1979-07-27 23:31:31.120 ,3,1,0.,24.0,0.,24.0
1979-07-27 23:31:55.120 ,0,1,0.,24.0,0.,24.0
1979-07-27 23:32:19.120 ,4,1,0.,24.0,0.,24.0
1979-07-27 23:32:43.120 ,7,1,0.,24.0,0.,24.0
1979-07-27 23:33:07.120 ,3,1,0.,24.0,0.,24.0
1979-07-27 23:33:31.120 ,0,1,0.,24.0,0.,24.0
1979-07-27 23:33:55.120 ,4,1,0.,24.0,0.,24.0
1979-07-27 23:34:19.120 ,7,1,0.,24.0,0.,24.0
1979-07-27 23:34:43.120 ,3,1,0.,24.0,0.,24.0
1979-07-27 23:35:07.120 ,0,1,0.,24.0,0.,24.0
1979-07-27 23:35:31.120 ,4,1,0.,24.0,0.,24.0
1979-07-27 23:35:55.120 ,7,1,0.,24.0,0.,24.0